Location: Olsztyn
(53.7767°N, 20.4765°E)
Time: 19:20:09
(UTC+02:00)

A-11 Canister half - Pass Details

Date: 28 January 2022
Orbit: 1513 x 1686 km, 47.2° (Epoch: 24 May)

Event Time Altitude Azimuth Distance (km) Brightness Sun altitude
Rises 21:17:07 0° 282° (WNW) 4,691 12.2 -43.6°
Reaches altitude 10° 21:20:29 10° 274° (W) 3,692 11.5 -44.0°
Enters shadow 21:25:46 29° 244° (WSW) 2,488 10.1 -44.6°
